Location: Del Amo
(33.8464°N, 118.2104°W)
Time: 07:20:54
(UTC+00:00)

Vanguard 1 Rocket - Pass Details

Date: 15 September 2024
Orbit: 650 x 4218 km, 34.3° (Epoch: 09 October)

Event Time Altitude Azimuth Distance (km) Brightness Sun altitude
Rises 14:53:24 0° 278° (W) 6,759 11.2 15.1°
Reaches altitude 10° 14:57:12 10° 279° (W) 6,102 11.0 15.9°
Maximum altitude 15:19:34 86° 194° (SSW) 4,171 11.1 20.4°
Drops below altitude 10° 15:45:15 10° 109° (ESE) 6,828 13.7 25.6°
Sets 15:49:49 0° 109° (ESE) 7,546 13.4 26.5°
